When you browse on this site, cookies collect data to enhance your experience and personalize the content and advertising you see.
Visit our Privacy Policy to learn more. By continuing to use the site, you agree to this use of cookies and data.
  • In Schweiz
  • Länderverzeichnis
  • Für 7 Tage
  • Wassertemperatur
  • Satellitenkarten
  • Wetterkarte
  • Widgets
  • user-avatar
    Anmelden

    Stündliche Wetter Teheran

    Heute, 19 Dezember, Mittwoch

    Zeit Temperatur Niederschläge Wind Luftdruck Luftfeuchtigkeit
    00:00 +7°C° 0 mm 2 m/S 667 mmHg 70%
    01:00 +7°C° 0 mm 2 m/S 667 mmHg 69%
    02:00 +7°C° 0 mm 2 m/S 667 mmHg 68%
    03:00 +7°C° 0 mm 2 m/S 667 mmHg 65%
    04:00 +6°C° 0 mm 2 m/S 667 mmHg 65%
    05:00 +6°C° 0 mm 2 m/S 667 mmHg 64%
    06:00 +6°C° 0 mm 2 m/S 667 mmHg 64%
    07:00 +7°C° 0 mm 2 m/S 668 mmHg 60%
    08:00 +9°C° 0 mm 1 m/S 668 mmHg 56%
    09:00 +9°C° 0 mm 2 m/S 669 mmHg 51%
    10:00 +10°C° 0 mm 2 m/S 669 mmHg 49%
    11:00 +10°C° 0 mm 2 m/S 669 mmHg 46%
    12:00 +12°C° 0 mm 2 m/S 669 mmHg 43%
    13:00 +12°C° 0 mm 1 m/S 669 mmHg 43%
    14:00 +12°C° 0 mm 1 m/S 669 mmHg 43%
    15:00 +12°C° 0 mm 1 m/S 668 mmHg 43%
    16:00 +11°C° 0 mm 1 m/S 668 mmHg 44%
    17:00 +10°C° 0 mm 1 m/S 668 mmHg 45%
    18:00 +9°C° 0 mm 1 m/S 668 mmHg 47%
    19:00 +9°C° 0 mm 1 m/S 668 mmHg 44%
    20:00 +8°C° 0 mm 1 m/S 668 mmHg 42%
    21:00 +8°C° 0 mm 1 m/S 668 mmHg 40%
    22:00 +8°C° 0 mm 1 m/S 668 mmHg 39%
    23:00 +8°C° 0 mm 1 m/S 668 mmHg 38%

    Morgen, 20 Dezember, Donnerstag

    Zeit Temperatur Niederschläge Wind Luftdruck Luftfeuchtigkeit
    00:00 +8°C° 0 mm 1 m/S 668 mmHg 37%
    01:00 +7°C° 0 mm 1 m/S 668 mmHg 39%
    02:00 +7°C° 0 mm 1 m/S 668 mmHg 41%
    03:00 +7°C° 0 mm 1 m/S 667 mmHg 43%
    04:00 +7°C° 0 mm 1 m/S 667 mmHg 47%
    05:00 +7°C° 0 mm 1 m/S 668 mmHg 51%
    06:00 +7°C° 0 mm 1 m/S 668 mmHg 54%
    07:00 +8°C° 0 mm 1 m/S 668 mmHg 55%
    08:00 +9°C° 0 mm 1 m/S 668 mmHg 55%
    09:00 +9°C° 0 mm 2 m/S 668 mmHg 55%
    10:00 +9°C° 0 mm 2 m/S 668 mmHg 53%
    11:00 +10°C° 0 mm 2 m/S 667 mmHg 51%
    12:00 +11°C° 0 mm 3 m/S 666 mmHg 49%
    13:00 +11°C° 0 mm 3 m/S 666 mmHg 50%
    14:00 +12°C° 0 mm 2 m/S 666 mmHg 51%
    15:00 +10°C° 0 mm 2 m/S 666 mmHg 51%
    16:00 +10°C° 0.1 mm 2 m/S 665 mmHg 53%
    17:00 +9°C° 0.1 mm 2 m/S 665 mmHg 55%
    18:00 +10°C° 0.1 mm 1 m/S 665 mmHg 57%
    19:00 +8°C° 0.5 mm 2 m/S 665 mmHg 61%
    20:00 +8°C° 0.5 mm 2 m/S 665 mmHg 64%
    21:00 +8°C° 0.5 mm 2 m/S 665 mmHg 68%
    22:00 +8°C° 0.6 mm 2 m/S 665 mmHg 69%
    23:00 +8°C° 0.6 mm 2 m/S 665 mmHg 71%

    übermorgen, 21 Dezember, Freitag

    Zeit Temperatur Niederschläge Wind Luftdruck Luftfeuchtigkeit
    00:00 +7°C° 0.6 mm 2 m/S 665 mmHg 72%
    01:00 +7°C° 0.1 mm 2 m/S 664 mmHg 73%
    02:00 +7°C° 0.1 mm 2 m/S 664 mmHg 73%
    03:00 +7°C° 0.1 mm 2 m/S 664 mmHg 74%
    04:00 +6°C° 0 mm 2 m/S 664 mmHg 74%
    05:00 +6°C° 0 mm 2 m/S 664 mmHg 74%
    06:00 +7°C° 0 mm 1 m/S 664 mmHg 74%
    07:00 +7°C° 0 mm 1 m/S 665 mmHg 71%
    08:00 +8°C° 0 mm 1 m/S 665 mmHg 69%
    09:00 +8°C° 0 mm 2 m/S 665 mmHg 66%
    10:00 +8°C° 0.1 mm 2 m/S 665 mmHg 64%
    11:00 +9°C° 0.1 mm 2 m/S 665 mmHg 61%
    12:00 +9°C° 0.1 mm 3 m/S 665 mmHg 59%
    13:00 +9°C° 0.1 mm 3 m/S 665 mmHg 58%
    14:00 +10°C° 0.1 mm 3 m/S 665 mmHg 57%
    15:00 +10°C° 0.1 mm 3 m/S 665 mmHg 56%
    16:00 +9°C° 0.1 mm 3 m/S 665 mmHg 59%
    17:00 +8°C° 0.1 mm 3 m/S 665 mmHg 62%
    18:00 +8°C° 0.1 mm 3 m/S 665 mmHg 65%
    19:00 +7°C° 0 mm 3 m/S 665 mmHg 65%
    20:00 +7°C° 0 mm 3 m/S 665 mmHg 64%
    21:00 +7°C° 0 mm 3 m/S 665 mmHg 64%
    22:00 +5°C° 0 mm 3 m/S 665 mmHg 64%
    23:00 +5°C° 0 mm 3 m/S 665 mmHg 65%

    22 Dezember, Samstag

    Zeit Temperatur Niederschläge Wind Luftdruck Luftfeuchtigkeit
    00:00 +5°C° 0 mm 3 m/S 665 mmHg 65%
    01:00 +4°C° 0 mm 3 m/S 665 mmHg 65%
    02:00 +4°C° 0 mm 3 m/S 664 mmHg 65%
    03:00 +4°C° 0 mm 3 m/S 664 mmHg 65%
    04:00 +5°C° 0 mm 2 m/S 665 mmHg 66%
    05:00 +4°C° 0 mm 2 m/S 665 mmHg 66%
    06:00 +4°C° 0 mm 2 m/S 665 mmHg 66%
    07:00 +5°C° 0 mm 2 m/S 665 mmHg 64%
    08:00 +5°C° 0 mm 2 m/S 666 mmHg 62%
    09:00 +6°C° 0 mm 2 m/S 666 mmHg 59%
    10:00 +7°C° 0.1 mm 2 m/S 666 mmHg 59%
    11:00 +7°C° 0.1 mm 2 m/S 666 mmHg 58%
    12:00 +8°C° 0.1 mm 2 m/S 666 mmHg 58%
    13:00 +8°C° 0.1 mm 2 m/S 665 mmHg 58%
    14:00 +8°C° 0.1 mm 2 m/S 665 mmHg 58%
    15:00 +9°C° 0.1 mm 1 m/S 665 mmHg 57%
    16:00 +8°C° 0 mm 1 m/S 665 mmHg 60%
    17:00 +7°C° 0 mm 1 m/S 665 mmHg 62%
    18:00 +7°C° 0 mm 1 m/S 665 mmHg 65%
    19:00 +6°C° 0 mm 1 m/S 665 mmHg 65%
    20:00 +6°C° 0 mm 1 m/S 665 mmHg 65%
    21:00 +5°C° 0 mm 1 m/S 665 mmHg 65%
    22:00 +5°C° 0 mm 1 m/S 665 mmHg 65%
    23:00 +4°C° 0 mm 0 m/S 665 mmHg 64%

    23 Dezember, Sonntag

    Zeit Temperatur Niederschläge Wind Luftdruck Luftfeuchtigkeit
    00:00 +4°C° 0 mm 0 m/S 664 mmHg 63%
    01:00 +3°C° 0 mm 0 m/S 664 mmHg 62%
    02:00 +3°C° 0 mm 0 m/S 664 mmHg 61%
    03:00 +3°C° 0 mm 0 m/S 664 mmHg 60%
    04:00 +3°C° 0 mm 0 m/S 664 mmHg 59%
    05:00 +3°C° 0 mm 0 m/S 664 mmHg 58%
    06:00 +3°C° 0 mm 0 m/S 664 mmHg 57%
    07:00 +4°C° 0 mm 0 m/S 665 mmHg 55%
    08:00 +5°C° 0 mm 0 m/S 665 mmHg 53%
    09:00 +7°C° 0 mm 1 m/S 666 mmHg 51%
    10:00 +7°C° 0 mm 1 m/S 665 mmHg 50%
    11:00 +8°C° 0 mm 1 m/S 665 mmHg 50%
    12:00 +8°C° 0 mm 1 m/S 665 mmHg 49%
    13:00 +8°C° 0 mm 1 m/S 664 mmHg 49%
    14:00 +8°C° 0 mm 1 m/S 664 mmHg 50%
    15:00 +8°C° 0 mm 1 m/S 664 mmHg 50%
    16:00 +7°C° 0 mm 1 m/S 664 mmHg 52%
    17:00 +6°C° 0 mm 0 m/S 664 mmHg 54%
    18:00 +5°C° 0 mm 0 m/S 664 mmHg 56%
    19:00 +5°C° 0 mm 0 m/S 664 mmHg 56%
    20:00 +4°C° 0 mm 0 m/S 664 mmHg 55%
    21:00 +5°C° 0 mm 1 m/S 664 mmHg 55%
    22:00 +5°C° 0 mm 1 m/S 663 mmHg 56%
    23:00 +5°C° 0 mm 1 m/S 663 mmHg 56%

    24 Dezember, Montag

    Zeit Temperatur Niederschläge Wind Luftdruck Luftfeuchtigkeit
    00:00 +5°C° 0 mm 1 m/S 663 mmHg 57%
    01:00 +4°C° 0 mm 1 m/S 663 mmHg 57%
    02:00 +4°C° 0 mm 1 m/S 662 mmHg 58%
    03:00 +4°C° 0 mm 1 m/S 662 mmHg 58%
    04:00 +4°C° 0 mm 1 m/S 662 mmHg 59%
    05:00 +3°C° 0 mm 0 m/S 662 mmHg 59%
    06:00 +3°C° 0 mm 0 m/S 662 mmHg 59%
    07:00 +5°C° 0 mm 1 m/S 662 mmHg 56%
    08:00 +6°C° 0 mm 1 m/S 663 mmHg 53%
    09:00 +7°C° 0 mm 1 m/S 663 mmHg 51%
    10:00 +8°C° 0 mm 1 m/S 663 mmHg 48%
    11:00 +9°C° 0 mm 1 m/S 662 mmHg 45%
    12:00 +10°C° 0 mm 1 m/S 662 mmHg 43%
    13:00 +10°C° 0 mm 1 m/S 662 mmHg 43%
    14:00 +9°C° 0 mm 2 m/S 662 mmHg 43%
    15:00 +9°C° 0 mm 2 m/S 662 mmHg 42%
    16:00 +9°C° 0 mm 1 m/S 662 mmHg 44%
    17:00 +8°C° 0 mm 1 m/S 662 mmHg 45%
    18:00 +7°C° 0 mm 1 m/S 662 mmHg 47%
    19:00 +7°C° 0 mm 1 m/S 662 mmHg 46%
    20:00 +6°C° 0 mm 1 m/S 662 mmHg 46%
    21:00 +6°C° 0 mm 1 m/S 662 mmHg 45%
    22:00 +6°C° 0 mm 1 m/S 662 mmHg 45%
    23:00 +6°C° 0 mm 1 m/S 662 mmHg 44%
    Mehr zeigen